Wharton, TX

5:24 AM CDT on September 26, 2017 (GMT -0500)
Wharton Regional

Weather History for KARM - December, 2013

Change the Weather History Date:

Sunday, December 8, 2013

  Actual Average (KPSX) Record (KPSX)
Temperature  
Mean Temperature 39 °F -  
Max Temperature 46 °F 67 °F 81 °F (2012)
Min Temperature 32 °F 48 °F 28 °F (2011)
Degree Days  
Heating Degree Days 26    
Moisture  
Dew Point 37 °F    
Average Humidity 90    
Maximum Humidity 99    
Minimum Humidity 77    
Precipitation  
Precipitation 0.00 in - - ()
Sea Level Pressure  
Sea Level Pressure 30.16 in    
Wind  
Wind Speed 6 mph (North)    
Max Wind Speed 10 mph    
Max Gust Speed -    
Visibility 7 miles    
Events      
Averages and records for this station are not official NWS values.
T = Trace of Precipitation, MM = Missing Value Source: NWS Daily Summary

Daily Weather History Graph

Daily Weather History Graph

Search for Another Location

Airport or City:

Trip Planner

Search our weather history database for the weather conditions in past years. The results will help you decide how hot, cold, wet, or windy it might be!

Date:

Astronomy

Dec. 08, 2013 Rise Set
Actual Time 7:06 AM CST 5:26 PM CST
Civil Twilight 6:40 AM CST 5:52 PM CST
Nautical Twilight 6:11 AM CST 6:22 PM CST
Astronomical Twilight 5:42 AM CST 6:51 PM CST
Moon 11:49 AM CST (12/8) 11:53 PM CST (12/8)
Length of Visible Light 11h 11m
Length of Day
10h 19m
Waxing Crescent, 40% of the Moon is Illuminated
Dec 8
Waxing Crescent
Dec 9
First Quarter
Dec 17
Full
Dec 25
Last Quarter
Jan 1
New

Hourly Weather History & Observations

Time (CST) Temp. Windchill Dew Point Humidity Pressure Visibility Wind Dir Wind Speed Gust Speed Precip Events Conditions
12:15 AM 33.1 °F 25.5 °F 32.4 °F 97% 30.26 in 5.0 mi North 9.2 mph - N/A   Overcast
12:35 AM 33.1 °F 26.9 °F 32.5 °F 98% 30.25 in 5.0 mi North 6.9 mph - N/A   Overcast
12:55 AM 33.3 °F 27.9 °F 32.9 °F 99% 30.25 in 5.0 mi NNW 5.8 mph - N/A   Overcast
1:15 AM 33.4 °F 27.3 °F 32.9 °F 98% 30.25 in 5.0 mi NNW 6.9 mph - N/A   Overcast
1:35 AM 33.8 °F 29.6 °F 32.9 °F 96% 30.24 in 5.0 mi North 4.6 mph - N/A   Overcast
1:55 AM 33.8 °F 27.0 °F 32.9 °F 96% 30.25 in 5.0 mi NNW 8.1 mph - N/A   Overcast
2:15 AM 33.1 °F 25.5 °F 32.4 °F 97% 30.25 in 5.0 mi NNW 9.2 mph - N/A   Overcast
2:35 AM 32.9 °F 24.7 °F 32.2 °F 97% 30.23 in 7.0 mi NNW 10.4 mph - N/A   Overcast
2:55 AM 32.9 °F 26.7 °F 32.2 °F 97% 30.21 in 5.0 mi North 6.9 mph - N/A   Overcast
3:15 AM 32.9 °F 26.7 °F 32.2 °F 97% 30.21 in 7.0 mi North 6.9 mph - N/A   Overcast
3:35 AM 32.9 °F 27.5 °F 32.2 °F 97% 30.20 in 7.0 mi North 5.8 mph - N/A   Overcast
3:55 AM 33.1 °F 26.9 °F 32.4 °F 97% 30.19 in 7.0 mi North 6.9 mph - N/A   Overcast
4:15 AM 33.4 °F 30.4 °F 32.9 °F 98% 30.20 in 5.0 mi North 3.5 mph - N/A   Overcast
4:35 AM 33.8 °F 28.6 °F 32.9 °F 96% 30.20 in 7.0 mi North 5.8 mph - N/A   Overcast
4:55 AM 33.8 °F 29.6 °F 32.9 °F 96% 30.20 in 5.0 mi NNW 4.6 mph - N/A   Overcast
5:15 AM 34.0 °F 28.8 °F 33.1 °F 96% 30.19 in 7.0 mi North 5.8 mph - N/A   Overcast
5:35 AM 34.0 °F 28.8 °F 33.1 °F 96% 30.19 in 7.0 mi North 5.8 mph - N/A   Overcast
5:55 AM 34.2 °F - 33.3 °F 97% 30.20 in 7.0 mi Calm Calm - N/A   Overcast
6:15 AM 34.3 °F 30.2 °F 33.4 °F 97% 30.19 in 7.0 mi North 4.6 mph - N/A   Overcast
6:35 AM 34.7 °F - 33.8 °F 97% 30.20 in 7.0 mi Calm Calm - N/A   Overcast
6:55 AM 34.7 °F 31.8 °F 33.8 °F 97% 30.20 in 7.0 mi NW 3.5 mph - N/A   Overcast
7:15 AM 34.9 °F 32.0 °F 33.8 °F 96% 30.20 in 7.0 mi NNW 3.5 mph - N/A   Overcast
7:35 AM 35.4 °F 31.5 °F 34.0 °F 94% 30.19 in 5.0 mi NNW 4.6 mph - N/A   Overcast
7:55 AM 35.6 °F 30.7 °F 34.3 °F 95% 30.20 in 5.0 mi NW 5.8 mph - N/A   Overcast
8:15 AM 35.6 °F 30.7 °F 34.5 °F 96% 30.21 in 5.0 mi NNW 5.8 mph - N/A   Overcast
8:35 AM 35.8 °F 31.9 °F 34.7 °F 96% 30.21 in 7.0 mi NNW 4.6 mph - N/A   Overcast
8:55 AM 36.1 °F 30.6 °F 34.7 °F 94% 30.20 in 7.0 mi NNW 6.9 mph - N/A   Overcast
9:15 AM 36.5 °F 31.0 °F 34.7 °F 93% 30.19 in 7.0 mi NNW 6.9 mph - N/A   Overcast
9:35 AM 37.4 °F 31.4 °F 35.8 °F 94% 30.19 in 7.0 mi NNW 8.1 mph - N/A   Overcast
9:55 AM 38.3 °F 33.9 °F 35.8 °F 91% 30.19 in 7.0 mi North 5.8 mph - N/A   Overcast
10:15 AM 38.7 °F 35.2 °F 36.0 °F 90% 30.21 in 10.0 mi NW 4.6 mph - N/A   Overcast
10:35 AM 39.4 °F 35.2 °F 36.0 °F 88% 30.20 in 10.0 mi NW 5.8 mph - N/A   Overcast
10:55 AM 40.5 °F 36.5 °F 37.0 °F 88% 30.18 in 10.0 mi North 5.8 mph - N/A   Overcast
11:15 AM 40.5 °F 35.8 °F 36.5 °F 86% 30.18 in 10.0 mi North 6.9 mph - N/A   Overcast
11:35 AM 40.8 °F 35.6 °F 36.7 °F 85% 30.18 in 10.0 mi NNW 8.1 mph - N/A   Overcast
11:55 AM 42.1 °F 37.1 °F 37.6 °F 84% 30.16 in 10.0 mi North 8.1 mph - N/A   Overcast
12:15 PM 42.3 °F 38.6 °F 37.2 °F 82% 30.16 in 10.0 mi NNE 5.8 mph - N/A   Overcast
12:35 PM 43.2 °F 39.0 °F 38.1 °F 82% 30.13 in 7.0 mi North 6.9 mph - N/A   Overcast
12:55 PM 44.1 °F 40.1 °F 38.3 °F 80% 30.11 in 10.0 mi North 6.9 mph - N/A   Overcast
1:15 PM 44.6 °F 40.7 °F 38.3 °F 79% 30.10 in 10.0 mi North 6.9 mph - N/A   Overcast
1:35 PM 45.7 °F 42.7 °F 39.2 °F 78% 30.08 in 10.0 mi North 5.8 mph - N/A   Overcast
1:55 PM 45.7 °F 42.7 °F 39.2 °F 78% 30.08 in 10.0 mi North 5.8 mph - N/A   Overcast
2:15 PM 46.4 °F 42.9 °F 39.4 °F 77% 30.07 in 10.0 mi North 6.9 mph - N/A   Overcast
2:35 PM 45.9 °F 42.9 °F 39.6 °F 79% 30.08 in 10.0 mi North 5.8 mph - N/A   Overcast
2:55 PM 45.7 °F 41.5 °F 39.7 °F 80% 30.08 in 10.0 mi North 8.1 mph - N/A   Overcast
3:15 PM 45.3 °F 41.1 °F 39.7 °F 81% 30.08 in 10.0 mi NNW 8.1 mph - N/A   Overcast
3:35 PM 45.5 °F 42.5 °F 40.1 °F 81% 30.08 in 10.0 mi North 5.8 mph - N/A   Overcast
3:55 PM 45.1 °F 42.8 °F 39.9 °F 82% 30.08 in 10.0 mi North 4.6 mph - N/A   Overcast
4:15 PM 45.1 °F 42.8 °F 40.3 °F 83% 30.08 in 7.0 mi North 4.6 mph - N/A   Overcast
4:35 PM 44.8 °F 42.4 °F 40.5 °F 85% 30.08 in 7.0 mi North 4.6 mph - N/A   Overcast
4:55 PM 44.8 °F - 40.6 °F 85% 30.08 in 7.0 mi Calm Calm - N/A   Overcast
5:15 PM 44.8 °F 43.3 °F 40.5 °F 85% 30.08 in 7.0 mi North 3.5 mph - N/A   Overcast
5:35 PM 44.8 °F - 40.8 °F 86% 30.08 in 10.0 mi Calm Calm - N/A   Overcast
5:55 PM 44.8 °F 43.3 °F 40.6 °F 85% 30.08 in 10.0 mi NNE 3.5 mph - N/A   Overcast
6:15 PM 45.0 °F - 40.8 °F 85% 30.09 in 7.0 mi Calm Calm - N/A   Overcast
6:35 PM 44.8 °F - 40.5 °F 85% 30.10 in 7.0 mi Calm Calm - N/A   Overcast
6:55 PM 45.0 °F 43.5 °F 40.8 °F 85% 30.11 in 7.0 mi NNE 3.5 mph - N/A   Overcast
7:15 PM 45.0 °F - 41.0 °F 86% 30.11 in 7.0 mi Calm Calm - N/A   Overcast
7:35 PM 45.0 °F - 41.0 °F 86% 30.12 in 7.0 mi Calm Calm - N/A   Overcast
7:55 PM 45.0 °F - 41.2 °F 87% 30.13 in 7.0 mi Calm Calm - N/A   Overcast
8:15 PM 45.1 °F 42.8 °F 41.4 °F 87% 30.12 in 7.0 mi NNE 4.6 mph - N/A   Overcast
8:35 PM 45.3 °F 43.0 °F 41.5 °F 87% 30.12 in 7.0 mi NNE 4.6 mph - N/A   Overcast
8:55 PM 45.3 °F 44.0 °F 41.7 °F 87% 30.13 in 7.0 mi NNE 3.5 mph - N/A   Overcast
9:15 PM 45.3 °F 44.0 °F 41.9 °F 88% 30.13 in 7.0 mi NNE 3.5 mph - N/A   Overcast
9:35 PM 45.1 °F 43.7 °F 42.1 °F 89% 30.13 in 7.0 mi NNE 3.5 mph - N/A   Overcast
9:55 PM 44.6 °F - 42.4 °F 92% 30.13 in 3.0 mi Calm Calm - N/A   Overcast
10:15 PM 44.6 °F 43.1 °F 43.0 °F 94% 30.13 in 2.5 mi North 3.5 mph - N/A   Overcast
10:35 PM 44.2 °F 42.7 °F 43.2 °F 96% 30.13 in 3.0 mi North 3.5 mph - N/A   Overcast
10:55 PM 44.2 °F 41.8 °F 43.2 °F 96% 30.14 in 2.5 mi North 4.6 mph - N/A   Overcast
11:15 PM 44.1 °F 41.5 °F 43.2 °F 97% 30.13 in 2.5 mi North 4.6 mph - N/A   Overcast
11:35 PM 44.2 °F 41.0 °F 43.3 °F 97% 30.12 in 2.0 mi NNE 5.8 mph - N/A   Overcast
11:55 PM 44.2 °F 41.8 °F 43.7 °F 98% 30.12 in 2.5 mi NNE 4.6 mph - N/A   Overcast